Regional Weather Roundup
Issued by NWS

Home | Current Version | Previous Version | Graphics & Text | Print | Product List | Glossary On
Versions: 1 2 3 4 5 6 7 8 9 10 11 12 13 14 15 16 17 18 19 20 21 22 23 24 25 26 27 28 29 30 31 32 33 34 35 36 37 38 39 40 41 42 43 44 45 46 47 48 49 50
000
ASUS43 KOAX 292310
RWRNE

WEATHER ROUNDUP FOR NEBRASKA
NATIONAL WEATHER SERVICE OMAHA NE
600 PM CDT WED OCT 29 2014

NOTES: SATELLITE DATA IS BEING USED TO AUGMENT CLOUD COVER ABOVE
       12000 FEET.
       "FAIR" INDICATES FEW OR NO CLOUDS BELOW 12,000 FEET WITH NO
       SIGNIFICANT WEATHER AND/OR OBSTRUCTIONS TO VISIBILITY.

  * THESE STATIONS DO NOT REPORT WEATHER SUCH AS RAIN...SNOW OR FOG.

NEZ001>004-019>022-054>056-300000-
NEBRASKA PANHANDLE

CITY           SKY/WX    TMP DP  RH WIND       PRES   REMARKS
SCOTTSBLUFF    PTCLDY    67  24  19 NW16      30.01R
ALLIANCE       PTCLDY    64  26  23 N15       29.99R
CHADRON        PTCLDY    61  26  26 NW13G24   30.00R
KIMBALL        PTCLDY    65  23  20 NW22G35   30.04S
SIDNEY         PTCLDY    65  21  18 NW15G28   30.03R
$$

NEZ057>060-069>072-079>082-300000-
SOUTHWEST NEBRASKA

CITY           SKY/WX    TMP DP  RH WIND       PRES   REMARKS
NORTH PLATTE   CLEAR     68  25  19 S5        29.96F
IMPERIAL       CLEAR     70  21  15 SW5       29.98F
LEXINGTON      CLEAR     65  32  29 S6        29.99F
MCCOOK         CLEAR     71  24  17 S6        29.99F
OGALLALA       CLEAR     71  24  17 SW8       29.96F
$$

NEZ005>010-023>029-035>040-094-300000-
NORTH CENTRAL NEBRASKA

CITY           SKY/WX    TMP DP  RH WIND       PRES   REMARKS
VALENTINE      MOCLDY    64  27  24 E3        29.94S
AINSWORTH      PTCLDY    61  24  24 S5        29.95S
BROKEN BOW     CLEAR     63  32  31 S8        29.98F
O`NEILL        CLEAR     58  32  36 S9        30.00R
ORD            CLEAR     61  30  31 S8        29.99F
THEDFORD       CLEAR     69  24  18 CALM      29.95F
$$

NEZ041-046>049-061>064-073>077-083>087-300000-
SOUTH CENTRAL NEBRASKA

CITY           SKY/WX    TMP DP  RH WIND       PRES   REMARKS
GRAND ISLAND   CLEAR     60  33  36 S9        30.03F
AURORA         CLEAR     58  31  35 S9        30.03F
HASTINGS       CLEAR     61  32  33 S8        30.02F
HEBRON         CLEAR     61  30  30 S7        30.05F
HOLDREGE       CLEAR     65  32  28 CALM      30.00F
KEARNEY *      CLEAR     61  32  33 SE7       30.02F
YORK           CLEAR     57  32  38 S10       30.05F
$$

NEZ011>018-030>034-042>045-300000-
NORTHEAST NEBRASKA

CITY           SKY/WX    TMP DP  RH WIND       PRES   REMARKS
NORFOLK        CLEAR     55  31  39 S9        30.04F
ALBION         CLEAR     56  30  36 S8        30.03F
BLAIR          CLEAR     55  32  42 SE5       30.08F
COLUMBUS *       N/A    N/A N/A N/A MISG        N/A
FREMONT        CLEAR     55  32  42 SE7       30.08F
TEKAMAH        CLEAR     55  31  39 S8        30.08F
WAYNE          CLEAR     53  31  42 S8        30.05F
$$

NEZ050>053-065>068-078-088>093-300000-
SOUTHEAST NEBRASKA

CITY           SKY/WX    TMP DP  RH WIND       PRES   REMARKS
LINCOLN        CLEAR     55  34  45 S8        30.09F
OMAHA EPPLEY   CLEAR     54  31  41 SE7       30.10F
BEATRICE       CLEAR     58  33  38 SE8       30.08F
FALLS CITY     CLEAR     56  32  40 S6        30.11F
NEBRASKA CITY  CLEAR     54  28  37 S5        30.11S
PLATTSMOUTH    CLEAR     54  29  38 SE5       30.10F
$$

NEZ044-045-051>053-067-300000-
OMAHA AREA

CITY           SKY/WX    TMP DP  RH WIND       PRES   REMARKS
OMAHA EPPLEY   CLEAR     54  31  41 SE7       30.10F
BLAIR          CLEAR     55  32  42 SE5       30.08F
FREMONT        CLEAR     55  32  42 SE7       30.08F
MILLARD        CLEAR     55  33  42 S5        30.08F
OFFUTT AFB     CLEAR     54  33  46 SE8       30.09F
PLATTSMOUTH    CLEAR     54  29  38 SE5       30.10F
WAHOO          FAIR      55  30  38 S7        30.08F
$$



USA.gov is the U.S. government's official web portal to all federal, state and local government web resources and services.